Location: Bois Neuf
(42.7667°N, 0.6333°E)
Time: 22:09:37
(UTC+00:00)

Cosmos 1937 Rocket - Pass Details

Date: 29 September 2020
Orbit: 747 x 779 km, 74.0° (Epoch: 26 October)

Event Time Altitude Azimuth Distance (km) Brightness Sun altitude
Rises 18:39:17 0° 256° (WSW) 3,222 8.2 -11.4°
Reaches altitude 10° 18:43:16 10° 286° (WNW) 2,293 7.4 -12.1°
Maximum altitude 18:45:19 12° 310° (NW) 2,141 6.7 -12.5°
Drops below altitude 10° 18:47:21 10° 333° (NNW) 2,290 6.5 -12.9°
Sets 18:51:21 0° 4° (N) 3,213 6.8 -13.6°
